Tracking 29892 objects as of 21-Nov-2024
HD Live streaming from Space Station
objects crossing your sky now

STARLINK-32033

Track STARLINK-32033 now!
10-day predictions
STARLINK-32033 is classified as:


NORAD ID: 60144
Int'l Code: 2024-120K
Perigee: 453.0 km
Apogee: 455.6 km
Inclination: 53.2 °
Period: 93.5 minutes
Semi major axis: 6825 km
RCS: Unknown
Launch date: June 27, 2024
Source: United States (US)
Launch site: AIR FORCE EASTERN TEST RANGE (AFETR)
Your satellite tracking list
Your tracking list is empty




NASA's NSSDC Master Catalog

Two Line Element Set (TLE):
1 60144U 24120K   24325.16101681  .00042846  00000-0  10740-2 0  9992
2 60144  53.1547   6.1980 0001929 111.6198 248.5012 15.39650813 23697
Source of the keplerian elements: AFSPC